Weather reports worldwide

Advertisment
Aachen-Orsbach, Germany (10505): temperature & dewpoint: 18.06.2018 16:00:00 - 24.06.2018 16:00:00 (CEST)Aachen-Orsbach, Germany (10505): temperature 5cm & temperature -5cm: 18.06.2018 16:00:00 - 24.06.2018 16:00:00 (CEST)Aachen-Orsbach, Germany (10505): temperature -20cm & temperature -100cm: 18.06.2018 16:00:00 - 24.06.2018 16:00:00 (CEST)Aachen-Orsbach, Germany (10505): wind speed & gusts: 18.06.2018 16:00:00 - 24.06.2018 16:00:00 (CEST)Aachen-Orsbach, Germany (10505): wind direction: 18.06.2018 16:00:00 - 24.06.2018 16:00:00 (CEST)Aachen-Orsbach, Germany (10505): reduced air pressure: 18.06.2018 16:00:00 - 24.06.2018 16:00:00 (CEST)Aachen-Orsbach, Germany (10505): visibility: 18.06.2018 16:00:00 - 24.06.2018 16:00:00 (CEST)Aachen-Orsbach, Germany (10505): sunshine duration: 18.06.2018 16:00:00 - 24.06.2018 16:00:00 (CEST)Aachen-Orsbach, Germany (10505): precipitation: 18.06.2018 16:00:00 - 24.06.2018 16:00:00 (CEST)
Date & Time tt [°C] td [°C] tt 5cm [°C] tt -5cm [°C] tt -20cm [°C] tt -100cm [°C] ff [km/h] ff [kn] fx [km/h] fx [kn] dd ppp [hPa] vv [km] sd [min] rr [mm]
24.06.2018 16:00:00 17,5 9,4 21,9 25,1 17,8 16,0 13 7 23 12 NW 1023,0 54 32 0,0
24.06.2018 15:00:00 17,2 9,0 22,1 24,7 17,4 16,0 12 6 23 13 NNW 1023,2 52 44 0,0
24.06.2018 14:00:00 16,4 9,6 20,0 22,3 17,2 16,0 14 7 23 13 NNW 1023,6 38 25 0,0
24.06.2018 13:00:00 15,5 11,0 19,6 20,8 16,9 16,0 10 5 19 11 NW 1023,8 21 0 0,0
24.06.2018 12:00:00 14,5 11,0 18,1 19,7 16,8 16,0 7 4 14 7 W 1024,0 16 0 0,0
24.06.2018 11:00:00 13,1 10,7 15,9 17,2 16,8 16,0 6 4 16 9 W 1024,0 9 0 0,0
24.06.2018 10:00:00 12,0 10,9 13,7 16,3 16,8 16,0 9 5 17 9 W 1023,9 6 0 0,0
24.06.2018 09:00:00 11,8 10,7 13,7 15,6 16,9 16,0 10 6 14 8 WNW 1023,6 7 0 0,0
24.06.2018 08:00:00 11,6 11,0 12,4 15,0 17,0 16,0 11 6 14 7 W 1023,5 8 9 0,0
24.06.2018 07:00:00 11,4 10,7 11,8 14,4 17,2 16,0 7 4 11 6 W 1023,4 11 10 0,0
24.06.2018 06:00:00 10,8 10,6 10,3 14,3 17,3 16,0 9 5 10 6 W 1023,2 7 0 0,0
24.06.2018 05:00:00 11,3 10,5 10,1 14,6 17,5 16,0 7 4 13 7 WSW 1022,9 15 0 0,0
24.06.2018 04:00:00 11,7 10,7 10,8 15,1 17,6 16,0 8 4 11 6 WSW 1023,4 17 0 0,0
24.06.2018 03:00:00 12,0 11,2 11,3 15,5 17,8 16,0 7 4 11 6 WSW 1023,8 18 0 0,4
24.06.2018 02:00:00 12,4 10,4 11,8 15,7 17,9 16,0 8 5 15 8 WSW 1024,2 26 0 0,0
24.06.2018 01:00:00 12,5 10,2 11,7 16,0 18,1 16,0 10 5 14 7 SW 1024,5 30 0 0,0
24.06.2018 00:00:00 12,6 10,0 11,9 16,4 18,2 16,0 11 6 16 9 SSW 1024,6 36 0 0,0
23.06.2018 23:00:00 12,3 10,1 11,4 17,1 18,3 16,0 11 6 13 7 SSW 1024,9 30 0 0,0
23.06.2018 22:00:00 12,9 10,0 11,3 18,1 18,2 16,0 8 4 9 5 SSW 1024,7 40 0 0,0
23.06.2018 21:00:00 14,9 10,5 13,4 19,4 18,1 16,0 2 1 9 5 SW 1024,8 42 13 0,0
23.06.2018 20:00:00 16,2 9,8 17,6 20,8 17,9 16,0 6 3 13 7 SW 1025,0 41 27 0,0
23.06.2018 19:00:00 16,5 9,6 19,4 21,5 17,7 16,0 7 4 17 9 SW 1025,4 34 50 0,0
23.06.2018 18:00:00 15,6 9,7 17,6 21,1 17,5 16,0 6 4 15 8 WNW 1026,0 35 13 0,0
23.06.2018 17:00:00 15,4 9,4 19,6 19,9 17,3 16,0 8 4 15 8 WNW 1026,6 36 2 0,0
23.06.2018 16:00:00 14,4 9,2 16,0 19,0 17,2 16,0 11 6 18 10 WNW 1027,2 48 0 0,0
23.06.2018 15:00:00 14,1 9,3 15,6 19,0 17,0 16,0 13 7 21 11 W 1027,5 43 0 0,0
23.06.2018 14:00:00 14,0 9,3 15,6 19,8 16,7 16,0 11 6 26 14 W 1027,9 38 0 0,0
23.06.2018 13:00:00 14,0 8,8 16,4 21,0 16,4 16,0 14 8 28 15 WNW 1027,8 51 16 0,0
23.06.2018 12:00:00 13,9 8,4 18,3 18,9 16,2 16,0 12 7 22 12 WNW 1027,9 39 17 0,0
23.06.2018 11:00:00 12,4 9,0 14,9 16,5 16,2 16,0 14 8 23 12 WNW 1028,5 39 1 0,0
23.06.2018 10:00:00 11,1 8,5 12,9 15,1 16,2 16,0 15 8 22 12 W 1028,5 22 0 0,0
23.06.2018 09:00:00 10,2 8,4 11,4 14,0 16,3 16,0 13 7 19 10 W 1028,6 21 4 0,0
23.06.2018 08:00:00 9,3 7,7 10,5 12,9 16,5 16,0 8 4 12 6 WSW 1028,6 19 57 0,0
23.06.2018 07:00:00 7,9 7,6 7,9 11,6 16,7 16,0 8 4 11 6 WSW 1028,9 13 41 0,0
23.06.2018 06:00:00 6,6 6,5 5,5 11,5 17,0 16,0 9 5 12 6 WSW 1028,8 12 0 0,0
23.06.2018 05:00:00 6,9 6,7 5,1 11,9 17,2 16,0 8 4 11 6 WSW 1028,6 15 0 0,0
23.06.2018 04:00:00 7,3 7,0 5,4 12,3 17,5 16,0 8 5 11 6 W 1028,5 16 0 0,0
23.06.2018 03:00:00 7,1 6,7 5,4 12,9 17,7 16,0 9 5 14 7 W 1028,7 17 0 0,0
23.06.2018 02:00:00 7,6 7,0 6,2 13,6 17,9 16,0 10 5 13 7 W 1028,8 19 0 0,0
23.06.2018 01:00:00 9,0 7,8 8,2 14,3 18,2 16,0 8 5 12 7 WNW 1029,0 22 0 0,0
23.06.2018 00:00:00 8,1 7,1 5,8 14,6 18,3 16,0 8 4 16 9 W 1029,1 25 0 0,0
22.06.2018 23:00:00 9,0 7,6 7,7 15,6 18,5 16,0 10 5 16 8 W 1028,7 30 0 0,0
22.06.2018 22:00:00 10,8 8,0 10,1 16,9 18,5 16,0 11 6 31 17 WNW 1028,2 40 30 0,0
22.06.2018 21:00:00 12,9 8,5 13,3 17,8 18,5 16,0 19 10 31 17 WNW 1027,5 45 3 0,0
22.06.2018 20:00:00 13,3 8,3 13,7 19,0 18,4 16,0 20 11 32 18 WNW 1027,3 45 11 0,0
22.06.2018 19:00:00 14,5 8,8 16,5 19,7 18,3 16,0 22 12 36 20 WNW 1027,1 58 26 0,0
22.06.2018 18:00:00 14,7 9,4 17,8 19,9 18,2 15,9 26 14 39 21 WNW 1027,1 35 35 0,0
22.06.2018 17:00:00 14,0 8,7 17,0 19,0 18,1 15,9 27 15 39 21 NW 1027,2 44 21 0,0
22.06.2018 16:00:00 13,6 8,1 14,7 19,0 18,0 15,9 20 11 37 20 WNW 1027,0 50 0 0,0
22.06.2018 15:00:00 14,0 7,8 16,5 18,2 17,9 15,9 22 12 36 20 NW 1026,8 42 0 0,0
22.06.2018 14:00:00 13,6 7,0 15,4 18,7 17,8 15,9 23 13 37 20 WNW 1026,7 43 0 0,0
22.06.2018 13:00:00 13,6 6,1 16,4 17,6 17,7 15,9 27 15 39 21 WNW 1026,5 39 5 0,0
22.06.2018 12:00:00 12,6 6,6 13,7 16,5 17,7 15,9 24 13 38 20 NW 1026,7 42 0 0,0
22.06.2018 11:00:00 12,3 6,7 13,0 16,3 17,8 15,9 24 13 38 20 NW 1026,4 41 2 0,0
22.06.2018 10:00:00 12,9 6,4 14,6 15,8 17,9 15,9 26 14 41 22 NW 1025,8 50 22 0,0
22.06.2018 09:00:00 11,9 7,4 13,2 14,9 18,1 15,9 26 14 41 22 WNW 1025,7 40 29 0,0
22.06.2018 08:00:00 10,0 7,1 10,6 14,0 18,3 15,9 23 12 32 18 W 1026,0 46 55 0,0
22.06.2018 07:00:00 8,2 6,4 8,1 13,2 18,6 15,9 20 11 27 14 W 1025,9 48 60 0,0
22.06.2018 06:00:00 7,2 5,9 6,4 13,2 18,9 15,9 16 8 21 11 WSW 1026,0 37 1 0,0
22.06.2018 05:00:00 7,3 5,9 6,4 13,7 19,2 15,9 13 7 25 13 WSW 1026,0 39 0 0,0
22.06.2018 04:00:00 7,7 6,1 7,3 14,1 19,6 15,9 18 10 26 14 WSW 1025,9 36 0 0,0
22.06.2018 03:00:00 7,5 6,1 6,7 14,4 19,9 15,9 13 7 21 11 WSW 1026,0 33 0 0,0
22.06.2018 02:00:00 7,8 5,8 6,6 15,0 20,3 15,9 12 6 23 13 WSW 1026,2 35 0 0,0
22.06.2018 01:00:00 8,0 6,0 6,8 15,8 20,6 15,9 15 8 24 13 W 1026,3 38 0 0,0
22.06.2018 00:00:00 9,4 6,0 8,6 16,6 20,9 15,9 16 9 23 12 WNW 1026,4 43 0 0,0
21.06.2018 23:00:00 9,8 5,6 8,5 17,7 21,2 15,9 13 7 31 17 WNW 1025,9 47 0 0,0
21.06.2018 22:00:00 11,0 6,3 10,1 19,2 21,3 15,9 17 9 34 19 NW 1025,2 37 25 0,0
21.06.2018 21:00:00 12,8 6,8 13,4 20,6 21,4 15,8 21 11 36 20 NW 1024,5 63 14 0,0
21.06.2018 20:00:00 13,8 6,2 15,0 21,8 21,5 15,8 21 11 34 18 WNW 1024,1 59 14 0,0
21.06.2018 19:00:00 13,5 6,1 14,6 23,1 21,3 15,8 24 13 40 21 NW 1023,9 53 5 0,0
21.06.2018 18:00:00 14,8 5,9 16,9 24,7 21,2 15,8 26 14 47 26 NW 1023,1 41 44 0,0
21.06.2018 17:00:00 15,8 5,7 19,8 25,4 20,9 15,8 32 17 45 24 WNW 1022,2 57 54 0,0
21.06.2018 16:00:00 16,0 5,6 19,4 25,0 20,7 15,8 29 15 42 23 NW 1021,6 52 40 0,0
21.06.2018 15:00:00 16,3 5,5 20,1 25,0 20,5 15,8 29 16 44 24 NW 1021,1 48 42 0,0
21.06.2018 14:00:00 16,5 5,3 21,2 24,5 20,3 15,8 30 16 48 26 WNW 1020,5 55 55 0,0
21.06.2018 13:00:00 16,5 7,2 20,7 22,5 20,3 15,8 29 16 44 24 WNW 1020,0 54 40 0,0
21.06.2018 12:00:00 15,0 9,9 16,4 20,9 20,4 15,8 32 17 49 27 WNW 1019,5 41 20 0,0
21.06.2018 11:00:00 15,7 11,6 17,4 19,8 20,5 15,8 32 17 45 24 WNW 1018,5 39 10 0,0
21.06.2018 10:00:00 15,8 13,4 16,1 18,9 20,7 15,8 25 14 42 23 WNW 1017,4 31 0 0,0
21.06.2018 09:00:00 15,1 14,8 15,1 18,8 20,9 15,8 22 12 31 17 W 1016,8 5 0 0,0
21.06.2018 08:00:00 15,0 14,9 15,0 18,7 21,1 15,8 22 12 34 18 W 1016,5 9 0 0,0
21.06.2018 07:00:00 15,5 14,7 15,8 18,7 21,4 15,8 24 13 36 19 WSW 1016,1 18 0 0,0
21.06.2018 06:00:00 15,6 14,2 14,8 18,5 21,7 15,8 14 8 29 16 WSW 1015,8 28 0 0,0
21.06.2018 05:00:00 15,6 14,0 14,5 18,8 22,0 15,8 14 8 23 12 WSW 1016,1 27 0 0,0
21.06.2018 04:00:00 15,4 14,3 13,8 19,4 22,3 15,8 12 6 17 9 SSW 1016,8 21 0 0,0
21.06.2018 03:00:00 15,1 14,1 13,2 20,2 22,6 15,8 11 6 17 9 SSW 1017,4 22 0 0,0
21.06.2018 02:00:00 16,5 14,4 14,9 21,0 22,9 15,8 10 5 16 9 WSW 1017,8 38 0 0,0
21.06.2018 01:00:00 16,2 14,2 14,3 21,9 23,2 15,8 10 6 14 8 SW 1017,8 40 0 0,0
21.06.2018 00:00:00 19,1 14,6 17,0 22,9 23,4 15,8 11 6 16 9 WSW 1018,1 57 0 0,0
20.06.2018 23:00:00 20,4 15,1 18,7 24,0 23,5 15,8 12 7 16 9 WSW 1018,1 56 0 0,0
20.06.2018 22:00:00 20,7 15,3 19,3 25,5 23,6 15,8 11 6 16 8 W 1017,9 58 32 0,0
20.06.2018 21:00:00 22,5 15,5 22,7 27,2 23,5 15,8 13 7 21 12 W 1017,6 59 60 0,0
20.06.2018 20:00:00 24,2 15,4 25,7 29,0 23,2 15,8 16 9 24 13 W 1017,9 72 60 0,0
20.06.2018 19:00:00 25,1 15,6 27,2 30,6 22,9 15,8 16 9 25 13 W 1018,1 65 60 0,0
20.06.2018 18:00:00 25,6 16,2 29,2 31,8 22,4 15,8 14 7 24 13 WNW 1018,5 55 60 0,0
20.06.2018 17:00:00 25,7 16,2 30,2 32,5 21,9 15,8 16 9 26 14 W 1019,1 65 60 0,0
20.06.2018 16:00:00 25,6 15,7 31,4 32,5 21,3 15,8 13 7 26 14 WSW 1019,4 66 57 0,0
20.06.2018 15:00:00 25,2 16,4 31,6 32,0 20,7 15,8 12 6 26 14 W 1019,9 59 55 0,0
20.06.2018 14:00:00 24,2 16,6 30,4 31,2 20,1 15,8 12 6 24 13 W 1020,4 55 59 0,0
20.06.2018 13:00:00 23,8 16,6 29,2 29,6 19,6 15,8 14 8 25 14 WSW 1021,0 67 60 0,0
20.06.2018 12:00:00 23,1 15,7 27,5 27,5 19,2 15,8 15 8 26 14 WSW 1021,5 74 57 0,0
20.06.2018 11:00:00 22,0 15,7 25,6 25,2 18,9 15,8 14 8 22 12 SSW 1021,8 75 56 0,0
20.06.2018 10:00:00 20,8 15,6 23,2 23,0 18,8 15,8 12 7 21 12 SW 1022,1 61 57 0,0
20.06.2018 09:00:00 19,3 16,2 21,1 20,7 18,8 15,8 8 4 14 8 WSW 1022,3 56 60 0,0
20.06.2018 08:00:00 18,0 15,9 18,5 19,0 18,8 15,8 8 4 11 6 W 1022,6 55 60 0,0
20.06.2018 07:00:00 17,6 15,9 17,6 18,0 18,9 15,8 8 4 11 6 S 1022,6 65 10 0,0
20.06.2018 06:00:00 16,6 16,0 16,4 18,0 19,0 15,8 6 4 12 7 SSW 1022,9 34 0 0,0
20.06.2018 05:00:00 16,5 15,9 16,2 18,2 19,1 15,8 8 4 11 6 SSW 1023,2 35 0 0,0
20.06.2018 04:00:00 16,5 16,1 16,4 18,5 19,2 15,8 9 5 11 6 SSW 1023,5 24 0 0,0
20.06.2018 03:00:00 16,8 16,3 16,7 18,7 19,3 15,8 6 3 14 7 SW 1023,8 30 0 0,0
20.06.2018 02:00:00 17,2 16,1 17,1 18,9 19,4 15,8 9 5 12 7 W 1024,2 36 0 0,0
20.06.2018 01:00:00 17,1 16,4 17,0 19,2 19,4 15,8 7 4 8 4 SSW 1024,4 31 0 0,0
20.06.2018 00:00:00 17,4 16,2 17,1 19,4 19,5 15,8 4 2 6 4 WSW 1024,4 38 0 0,0
19.06.2018 23:00:00 17,3 16,2 17,3 19,8 19,5 15,8 5 3 8 4 SW 1024,6 30 0 0,0
19.06.2018 22:00:00 17,7 16,3 17,7 20,3 19,5 15,8 5 3 11 6 SW 1024,2 33 0 0,0
19.06.2018 21:00:00 18,4 16,2 18,7 20,9 19,5 15,8 8 4 14 8 W 1024,1 33 0 0,0
19.06.2018 20:00:00 19,0 16,2 19,7 21,5 19,4 15,8 9 5 16 8 W 1024,1 52 0 0,0
19.06.2018 19:00:00 19,2 15,8 20,0 22,1 19,2 15,8 11 6 22 12 WSW 1024,2 48 0 0,0
19.06.2018 18:00:00 19,9 15,9 21,1 23,1 18,9 15,8 11 6 22 12 WSW 1024,1 45 0 0,0
19.06.2018 17:00:00 20,0 16,2 22,4 22,6 18,7 15,8 14 7 20 11 WSW 1024,3 45 0 0,0
19.06.2018 16:00:00 19,4 16,1 21,7 22,7 18,5 15,8 13 7 23 12 WSW 1024,6 42 1 0,0
19.06.2018 15:00:00 19,0 16,2 21,2 21,1 18,3 15,8 12 7 22 12 WSW 1024,6 45 0 0,0
19.06.2018 14:00:00 18,4 15,7 19,8 21,5 18,2 15,8 14 8 27 15 WNW 1024,6 36 2 0,0
19.06.2018 13:00:00 18,7 16,1 22,7 19,6 18,1 15,8 18 10 25 14 WSW 1024,4 33 1 0,0
19.06.2018 12:00:00 16,7 16,2 17,5 18,4 18,1 15,8 14 8 25 14 W 1024,5 7 0 0,0
19.06.2018 11:00:00 16,5 15,5 17,4 18,0 18,1 15,8 14 8 26 14 WSW 1024,3 18 0 0,0
19.06.2018 10:00:00 16,4 14,9 17,1 17,7 18,1 15,8 18 10 29 15 WSW 1024,1 29 0 0,0
19.06.2018 09:00:00 16,0 14,6 16,8 17,1 18,2 15,8 15 8 26 14 WSW 1023,8 35 0 0,0
19.06.2018 08:00:00 15,2 14,1 15,6 16,6 18,3 15,8 18 10 29 16 SW 1023,6 27 0 0,0
19.06.2018 07:00:00 14,5 13,6 14,7 16,2 18,4 15,8 17 9 34 18 WSW 1023,5 26 0 0,0
19.06.2018 06:00:00 14,4 13,3 14,4 16,1 18,6 15,8 17 9 28 15 WSW 1023,3 38 0 0,0
19.06.2018 05:00:00 14,2 13,0 14,1 15,8 18,8 15,8 14 7 23 12 SW 1022,8 42 0 0,0
19.06.2018 04:00:00 13,4 12,5 12,5 16,0 19,1 15,8 14 8 26 14 SW 1022,7 33 0 0,0
19.06.2018 03:00:00 13,5 12,1 12,4 16,4 19,3 15,8 14 7 25 13 SW 1022,5 37 0 0,0
19.06.2018 02:00:00 14,1 12,9 13,0 16,9 19,5 15,8 14 7 19 11 WSW 1022,4 32 0 0,0
19.06.2018 01:00:00 14,8 13,0 13,7 17,5 19,6 15,8 16 9 24 13 WSW 1022,3 45 0 0,0
19.06.2018 00:00:00 15,4 13,2 14,3 18,3 19,8 15,8 18 10 26 14 WSW 1022,1 41 0 0,0
18.06.2018 23:00:00 15,6 13,8 14,6 19,1 19,9 15,8 14 8 23 12 W 1021,9 36 0 0,0
18.06.2018 22:00:00 16,9 14,0 16,0 20,1 19,9 15,8 16 9 29 16 W 1021,1 55 25 0,0
18.06.2018 21:00:00 18,8 14,6 18,8 21,1 19,9 15,8 22 12 31 17 W 1020,6 55 14 0,0
18.06.2018 20:00:00 19,7 15,3 21,0 22,0 19,8 15,8 19 11 32 17 W 1020,3 54 37 0,0
18.06.2018 19:00:00 19,5 15,6 20,2 22,3 19,6 15,8 13 7 25 14 WSW 1020,4 75 10 0,0
18.06.2018 18:00:00 19,2 15,2 19,7 22,6 19,5 15,8 16 8 36 19 WSW 1020,4 72 3 0,0
18.06.2018 17:00:00 20,3 15,3 22,3 22,7 19,3 15,8 21 11 36 19 SW 1020,6 58 2 0,0
18.06.2018 16:00:00 19,9 14,8 21,6 22,6 19,2 15,8 21 12 32 17 SW 1020,9 65 0 0,0

tt = temperature
td = dewpoint
tt 5cm = temperature 5cm
tt -5cm = temperature -5cm
tt -20cm = temperature -20cm
tt -100cm = temperature -100cm
ff = wind speed
fx = gusts
dd = wind direction
ppp = reduced air pressure
vv = visibility
sd = sunshine duration
rr = precipitation

Next stations